Weather History for KFKL - March, 2014

Change the Weather History Date:

Wednesday, March 12, 2014

  Actual Average Record
Temperature  
Mean Temperature 27 °F -  
Max Temperature 42 °F 42 °F - (-1)
Min Temperature 10 °F 23 °F - (-1)
Degree Days  
Heating Degree Days 38    
Moisture  
Dew Point 26 °F    
Average Humidity 81    
Maximum Humidity 93    
Minimum Humidity 67    
Precipitation  
Precipitation 0.42 in - - ()
Sea Level Pressure  
Sea Level Pressure 29.45 in    
Wind  
Wind Speed 9 mph (NNE)    
Max Wind Speed 25 mph    
Max Gust Speed 38 mph    
Visibility 6 miles    
Events      
Averages and records for this station are not official NWS values.
T = Trace of Precipitation, MM = Missing Value Source: NWS Daily Summary

Daily Weather History Graph

Daily Weather History Graph

Search for Another Location

Airport or City:

Trip Planner

Search our weather history database for the weather conditions in past years. The results will help you decide how hot, cold, wet, or windy it might be!

Date:

Astronomy

Mar. 12, 2014 Rise Set
Actual Time 7:36 AM EDT 7:22 PM EDT
Civil Twilight 7:08 AM EDT 7:50 PM EDT
Nautical Twilight 6:36 AM EDT 8:22 PM EDT
Astronomical Twilight 6:04 AM EDT 8:54 PM EDT
Moon 3:50 PM EDT (3/12) 5:08 AM EDT (3/12)
Length of Visible Light 12h 41m
Length of Day
11h 46m
Waxing Gibbous, 85% of the Moon is Illuminated
Mar 12
Waxing Gibbous
Mar 16
Full
Mar 23
Last Quarter
Mar 30
New
Apr 7
First Quarter

Hourly Weather History & Observations

Time (EDT) Temp. Windchill Dew Point Humidity Pressure Visibility Wind Dir Wind Speed Gust Speed Precip Events Conditions
12:15 AM 42.8 °F 38.6 °F 33.8 °F 70% 29.67 in 10.0 mi NNE 6.9 mph - N/A   Overcast
12:35 AM 42.8 °F 39.3 °F 33.8 °F 70% 29.67 in 10.0 mi NE 5.8 mph - N/A   Overcast
12:55 AM 42.8 °F 39.3 °F 33.8 °F 70% 29.67 in 10.0 mi NE 5.8 mph - N/A   Overcast
1:15 AM 42.8 °F 38.6 °F 33.8 °F 70% 29.65 in 10.0 mi NE 6.9 mph - N/A   Overcast
1:35 AM 42.8 °F 39.3 °F 33.8 °F 70% 29.64 in 10.0 mi ENE 5.8 mph - N/A   Overcast
1:55 AM 42.8 °F 37.5 °F 33.8 °F 70% 29.64 in 10.0 mi North 9.2 mph - N/A   Overcast
2:15 AM 39.2 °F 34.2 °F 32.0 °F 75% 29.63 in 10.0 mi North 6.9 mph - N/A   Mostly Cloudy
2:35 AM 39.2 °F 33.0 °F 33.8 °F 81% 29.63 in 10.0 mi North 9.2 mph - N/A   Mostly Cloudy
2:55 AM 39.2 °F 32.0 °F 33.8 °F 81% 29.61 in 10.0 mi North 11.5 mph - N/A   Mostly Cloudy
3:15 AM 39.2 °F 33.0 °F 33.8 °F 81% 29.58 in 10.0 mi NE 9.2 mph - N/A   Partly Cloudy
3:35 AM 39.2 °F 33.0 °F 33.8 °F 81% 29.57 in 10.0 mi NE 9.2 mph - N/A   Partly Cloudy
3:55 AM 39.2 °F 33.6 °F 33.8 °F 81% 29.55 in 10.0 mi NE 8.1 mph - N/A   Clear
4:15 AM 39.2 °F 33.0 °F 33.8 °F 81% 29.53 in 10.0 mi NE 9.2 mph - N/A   Scattered Clouds
4:35 AM 39.2 °F 34.2 °F 33.8 °F 81% 29.52 in 10.0 mi NE 6.9 mph - N/A   Scattered Clouds
4:55 AM 39.2 °F 34.2 °F 33.8 °F 81% 29.50 in 10.0 mi NE 6.9 mph - N/A   Partly Cloudy
5:15 AM 39.2 °F 33.6 °F 33.8 °F 81% 29.48 in 10.0 mi NE 8.1 mph - N/A   Mostly Cloudy
5:35 AM 39.2 °F 33.0 °F 33.8 °F 81% 29.47 in 10.0 mi ENE 9.2 mph - N/A   Overcast
5:55 AM 39.2 °F 33.6 °F 33.8 °F 81% 29.46 in 10.0 mi NE 8.1 mph - N/A   Overcast
6:15 AM 39.2 °F 35.0 °F 33.8 °F 81% 29.47 in 10.0 mi NE 5.8 mph - N/A   Overcast
6:35 AM 39.2 °F 35.0 °F 33.8 °F 81% 29.45 in 10.0 mi NE 5.8 mph - N/A   Overcast
6:55 AM 39.2 °F 35.0 °F 33.8 °F 81% 29.45 in 10.0 mi NE 5.8 mph - N/A   Overcast
7:15 AM 39.2 °F 33.0 °F 33.8 °F 81% 29.40 in 10.0 mi NE 9.2 mph - 0.02 in   Overcast
7:35 AM 37.4 °F 30.3 °F 33.8 °F 87% 29.39 in 10.0 mi NNE 10.4 mph - 0.02 in   Overcast
7:55 AM 37.4 °F 32.8 °F 33.8 °F 87% 29.39 in 10.0 mi NE 5.8 mph - 0.04 in   Overcast
8:15 AM 37.4 °F 32.8 °F 35.6 °F 93% 29.39 in 5.0 mi NE 5.8 mph - 0.02 in   Overcast
8:35 AM 37.4 °F 33.8 °F 35.6 °F 93% 29.39 in 5.0 mi NE 4.6 mph - 0.06 in   Overcast
8:55 AM 37.4 °F 30.3 °F 35.6 °F 93% 29.36 in 5.0 mi NNE 10.4 mph - 0.12 in   Overcast
9:15 AM 37.4 °F 31.4 °F 35.6 °F 93% 29.34 in 4.0 mi NE 8.1 mph - 0.05 in   Overcast
9:35 AM 37.4 °F 30.8 °F 35.6 °F 93% 29.32 in 3.0 mi NE 9.2 mph - 0.06 in   Overcast
9:55 AM 37.4 °F 30.3 °F 35.6 °F 93% 29.30 in 2.0 mi ENE 10.4 mph - 0.06 in   Overcast
10:15 AM 37.4 °F 29.8 °F 35.6 °F 93% 29.27 in 2.5 mi ENE 11.5 mph - 0.04 in   Overcast
10:35 AM 37.4 °F 31.4 °F 35.6 °F 93% 29.26 in 1.8 mi NE 8.1 mph - 0.05 in   Overcast
10:55 AM 39.2 °F 33.6 °F 35.6 °F 87% 29.24 in 1.8 mi NE 8.1 mph - 0.06 in   Overcast
11:15 AM 39.2 °F 33.6 °F 35.6 °F 87% 29.22 in 1.8 mi NE 8.1 mph - 0.01 in   Overcast
11:35 AM 39.2 °F 32.5 °F 35.6 °F 87% 29.19 in 1.0 mi ENE 10.4 mph - 0.01 in   Overcast
11:55 AM 39.2 °F 34.2 °F 35.6 °F 87% 29.18 in 1.0 mi NE 6.9 mph - 0.03 in   Overcast
12:15 PM 39.2 °F 35.0 °F 35.6 °F 87% 29.20 in 1.5 mi NW 5.8 mph - 0.04 in   Overcast
12:35 PM 37.4 °F 30.3 °F 35.6 °F 93% 29.20 in 4.0 mi NNW 10.4 mph - 0.08 in   Overcast
12:55 PM 37.4 °F 28.5 °F 33.8 °F 87% 29.15 in 10.0 mi North 15.0 mph 24.2 mph 0.09 in   Overcast
1:15 PM 35.6 °F 26.2 °F 30.2 °F 81% 29.17 in 8.0 mi North 15.0 mph 26.5 mph N/A   Overcast
1:35 PM 33.8 °F 23.5 °F 30.2 °F 87% 29.16 in 7.0 mi NNE 16.1 mph 21.9 mph N/A   Overcast
1:55 PM 32.0 °F 22.1 °F 28.4 °F 87% 29.17 in 5.0 mi North 13.8 mph 23.0 mph N/A   Overcast
2:15 PM 30.2 °F 18.1 °F 26.6 °F 86% 29.17 in 4.0 mi NNE 18.4 mph 26.5 mph 0.01 in   Overcast
2:35 PM 30.2 °F 16.2 °F 26.6 °F 86% 29.15 in 7.0 mi North 25.3 mph 29.9 mph 0.02 in   Overcast
2:55 PM 28.4 °F 15.1 °F 23.0 °F 80% 29.17 in 10.0 mi North 20.7 mph 29.9 mph 0.02 in   Overcast
3:15 PM 28.4 °F 13.8 °F 21.2 °F 74% 29.17 in 10.0 mi North 25.3 mph 35.7 mph N/A   Overcast
3:35 PM 26.6 °F 16.2 °F 21.2 °F 80% 29.22 in 5.0 mi North 11.5 mph 27.6 mph N/A   Overcast
3:55 PM 26.6 °F 14.3 °F 21.2 °F 80% 29.24 in 2.5 mi North 16.1 mph 32.2 mph N/A   Overcast
4:15 PM 26.6 °F 15.7 °F 21.2 °F 80% 29.27 in 1.2 mi North 12.7 mph 25.3 mph N/A   Overcast
4:35 PM 24.8 °F 11.1 °F 21.2 °F 86% 29.31 in 0.5 mi North 18.4 mph 31.1 mph N/A   Overcast
4:55 PM 23.0 °F 8.7 °F 15.8 °F 74% 29.35 in 1.2 mi North 18.4 mph 38.0 mph N/A   Overcast
5:15 PM 23.0 °F 13.1 °F 17.6 °F 80% 29.39 in 0.8 mi North 9.2 mph 19.6 mph N/A   Overcast
5:35 PM 21.2 °F 10.9 °F 15.8 °F 80% 29.42 in 1.0 mi North 9.2 mph 32.2 mph N/A   Overcast
5:55 PM 21.2 °F 8.3 °F 14.0 °F 74% 29.45 in 1.5 mi North 13.8 mph 29.9 mph N/A   Overcast
6:15 PM 19.4 °F 8.6 °F 14.0 °F 80% 29.48 in 1.0 mi NNW 9.2 mph 26.5 mph N/A   Overcast
6:35 PM 19.4 °F 7.2 °F 14.0 °F 80% 29.51 in 2.5 mi NNW 11.5 mph 23.0 mph N/A   Overcast
6:55 PM 19.4 °F 6.6 °F 14.0 °F 80% 29.54 in 4.0 mi NNW 12.7 mph 23.0 mph N/A   Overcast
7:15 PM 19.4 °F 5.5 °F 12.2 °F 74% 29.56 in 7.0 mi NNW 15.0 mph 25.3 mph N/A   Overcast
7:35 PM 19.4 °F 7.9 °F 12.2 °F 74% 29.59 in 7.0 mi NNW 10.4 mph 25.3 mph N/A   Overcast
7:55 PM 19.4 °F 7.9 °F 12.2 °F 74% 29.61 in 6.0 mi NW 10.4 mph 19.6 mph N/A   Overcast
8:15 PM 17.6 °F 6.4 °F 12.2 °F 79% 29.63 in 8.0 mi NW 9.2 mph 19.6 mph N/A   Overcast
8:35 PM 17.6 °F 5.0 °F 10.4 °F 73% 29.64 in 5.0 mi NNW 11.5 mph 21.9 mph N/A   Overcast
8:55 PM 17.6 °F 8.2 °F 10.4 °F 73% 29.65 in 7.0 mi NW 6.9 mph 18.4 mph N/A   Overcast
9:15 PM 17.6 °F 5.0 °F 10.4 °F 73% 29.66 in 7.0 mi NNW 11.5 mph 23.0 mph N/A   Overcast
9:35 PM 15.8 °F 4.2 °F 8.6 °F 73% 29.67 in 5.0 mi NNW 9.2 mph 18.4 mph N/A   Overcast
9:55 PM 15.8 °F 8.6 °F 10.4 °F 79% 29.68 in 4.0 mi NNW 4.6 mph 17.3 mph N/A   Overcast
10:15 PM 15.8 °F 2.7 °F 8.6 °F 73% 29.69 in 3.0 mi NW 11.5 mph 16.1 mph N/A   Overcast
10:35 PM 14.0 °F -0.2 °F 6.8 °F 73% 29.70 in 7.0 mi NNW 12.7 mph 21.9 mph N/A   Overcast
10:55 PM 14.0 °F 0.5 °F 6.8 °F 73% 29.71 in 10.0 mi NW 11.5 mph 19.6 mph N/A   Overcast
11:15 PM 12.2 °F -2.5 °F 5.0 °F 73% 29.71 in 6.0 mi NW 12.7 mph 20.7 mph N/A   Overcast
11:35 PM 12.2 °F -3.1 °F 3.2 °F 67% 29.72 in 10.0 mi NW 13.8 mph 23.0 mph N/A   Overcast
11:55 PM 10.4 °F -4.1 °F 3.2 °F 73% 29.74 in 10.0 mi NNW 11.5 mph 19.6 mph N/A   Overcast